Location: Aranbee
(34.0885°N, 118.2342°W)
Time: 18:23:18
(UTC+00:00)

Transit 2A Rocket - All Passes

Search period start: 04 December 2020 00:00
Search period end: 14 December 2020 00:00
Orbit: 589 x 914 km, 66.7° (Epoch: 03 December)

Date Brightness Start Highest point End Pass type
(mag) Time Alt. Az. Time Alt. Az. Time Alt. Az.
04 Dec - 06:33:33 10° SE 06:36:23 14° ESE 06:39:10 10° ENE night (unlit)
04 Dec - 08:12:22 10° SSW 08:18:25 76° WNW 08:24:10 10° NNE night (unlit)
04 Dec - 09:59:53 10° WNW 10:01:49 12° NW 10:03:43 10° NNW night (unlit)
04 Dec - 17:01:14 10° N 17:05:25 32° ENE 17:09:21 10° ESE daylight
04 Dec - 18:44:26 10° WNW 18:47:39 19° WSW 18:50:44 10° SSW daylight
05 Dec - 07:29:53 10° SSW 07:35:51 63° ESE 07:41:32 10° NNE night (unlit)
05 Dec - 09:14:40 10° W 09:18:49 19° NW 09:22:49 10° N night (unlit)
05 Dec - 16:19:24 10° N 16:22:34 18° NE 16:25:36 10° E daylight
05 Dec - 18:01:03 10° NW 18:05:18 39° WSW 18:09:19 10° S daylight
06 Dec - 06:47:56 10° S 06:53:22 36° ESE 06:58:35 10° NE night (unlit)
06 Dec - 08:30:42 10° WSW 08:35:58 32° WNW 08:40:59 10° N night (unlit)
06 Dec - 17:18:13 10° NNW 17:22:51 82° WSW 17:27:10 10° SSE daylight
07 Dec - 06:06:42 10° SSE 06:10:59 20° ESE 06:15:08 10° ENE night (unlit)
07 Dec - 07:47:23 10° SW 07:53:14 53° WNW 07:58:48 10° NNE night (unlit)
07 Dec - 16:35:45 10° NNW 16:40:15 48° ENE 16:44:27 10° SE daylight
07 Dec - 18:20:32 10° W 18:22:10 12° WSW 18:23:45 10° SW daylight
08 Dec - 05:27:34 10° ESE 05:28:41 11° ESE 05:29:47 10° E night (unlit)
08 Dec - 07:04:34 10° SSW 07:10:37 89° ESE 07:16:20 10° NNE night (unlit)
08 Dec - 08:50:56 10° W 08:53:50 14° NW 08:56:40 10° NNW night (unlit)
08 Dec - 15:53:37 10° N 15:57:29 26° NE 16:01:09 10° ESE daylight
08 Dec - 17:36:14 10° NW 17:39:53 24° WSW 17:43:23 10° SSW daylight
09 Dec - 06:22:15 10° S 06:28:04 52° ESE 06:33:37 10° NE night (unlit)
09 Dec - 08:06:18 10° WSW 08:10:54 23° NW 08:15:17 10° N night (unlit)
09 Dec - 15:12:03 10° NNE 15:14:35 14° NE 15:17:02 10° E daylight
09 Dec - 16:53:05 10° NW 16:57:31 50° WSW 17:01:40 10° S daylight
10 Dec - 05:40:32 10° SSE 05:45:38 29° ESE 05:50:30 10° NE night (unlit)
10 Dec - 07:22:35 10° SW 07:28:05 38° WNW 07:33:18 10° N night (unlit)
10 Dec - 16:10:24 10° NNW 16:14:59 78° ENE 16:19:18 10° SSE daylight
11 Dec - 04:59:41 10° SE 05:03:15 16° ESE 05:06:44 10° ENE night (unlit)
11 Dec - 06:39:27 10° SW 06:45:24 64° WNW 06:51:01 10° NNE night (unlit)
11 Dec - 15:28:02 10° N 15:32:20 38° ENE 15:36:23 10° SE daylight
11 Dec - 17:11:50 10° WNW 17:14:26 15° WSW 17:16:57 10° SW daylight
12 Dec - 05:56:49 10° SSW 06:02:49 75° ESE 06:08:28 10° NNE night (unlit)
12 Dec - 07:42:17 10° W 07:45:52 16° NW 07:49:20 10° NNW night (unlit)
12 Dec - 14:46:04 10° N 14:49:32 21° NE 14:52:51 10° ESE daylight
12 Dec - 16:28:08 10° NW 16:32:06 31° WSW 16:35:54 10° S daylight
13 Dec - 05:14:41 10° S 05:20:18 42° ESE 05:25:38 10° NE night (unlit)
13 Dec - 06:58:03 10° WSW 07:02:59 27° NW 07:07:41 10° N night (unlit)
13 Dec - 14:05:01 10° NNE 14:06:35 12° NE 14:08:08 10° ENE visible
13 Dec - 15:45:11 10° NNW 15:49:41 66° WSW 15:53:56 10° SSE daylight
